GFSGL_250_spd_273.txt.gz
Wind_Speed
69 70 68 68 69 72 73 73 73 72 72 72 73 75 78 81 83 83 82 83 81 79 77 76 74 71 70 73 81 91 95 93 85 80 68 71 70 70 71 63 62 65 62
71 75 69 71 78 79 81 81 82 82 82 83 83 85 85 86 86 86 87 86 83 79 74 70 69 68 69 70 73 82 97 101 99 92 86 82 79 80 74 68 71 73 69
76 74 78 86 86 86 87 86 86 85 84 82 81 80 80 81 82 82 83 85 82 79 71 62 59 59 59 63 67 78 87 102 102 102 98 90 81 77 80 78 75 75 75
86 86 88 91 90 86 85 84 81 79 76 77 77 76 77 79 80 82 84 85 84 81 76 68 63 58 57 61 64 68 82 91 99 100 98 89 87 83 78 75 78 78 78
89 87 84 80 80 75 71 68 67 68 71 73 75 76 79 81 83 85 87 87 85 85 81 74 65 60 59 59 63 64 72 81 91 90 97 87 84 81 83 81 78 75 69
88 81 74 72 72 70 67 68 69 71 74 78 79 81 84 85 86 86 87 86 85 83 81 74 67 63 60 60 61 64 69 72 83 87 89 95 91 87 85 80 80 73 71
82 76 71 71 70 67 71 74 74 76 78 81 84 86 88 89 89 89 89 86 83 80 77 73 67 62 58 58 61 63 68 72 76 82 87 89 89 84 82 78 75 63 62
77 73 73 74 73 76 79 79 78 79 80 84 88 90 89 89 87 86 84 81 77 73 69 65 62 58 56 58 60 64 68 70 71 78 83 80 89 87 83 83 78 75 70
75 79 78 77 81 81 82 83 84 83 86 88 89 89 87 86 84 80 75 71 70 68 65 61 59 57 56 56 61 65 67 67 69 75 82 86 87 94 93 88 79 80 75
82 82 83 85 85 86 87 88 88 88 90 91 90 88 84 81 75 69 65 64 64 65 62 56 53 50 52 53 56 60 62 65 65 67 73 82 94 92 88 92 89 79 74
84 85 87 87 89 89 90 92 93 93 93 91 84 80 76 70 65 63 63 63 61 62 56 47 51 48 48 50 53 54 59 60 59 62 72 81 86 90 89 83 85 80 76
87 88 88 91 90 93 95 96 96 94 89 83 77 71 67 63 61 60 61 59 56 56 54 50 49 49 46 46 51 52 53 55 56 59 72 85 84 85 88 86 83 77 77
89 87 89 91 92 97 99 99 95 88 82 76 68 64 61 62 60 59 58 56 50 48 45 45 44 47 43 43 45 50 52 54 56 58 63 77 83 85 83 80 76 77 68
91 90 92 96 97 99 97 92 86 79 71 66 64 62 61 59 56 51 47 46 43 40 37 39 40 40 39 40 42 46 50 52 53 55 59 63 76 84 85 83 77 75 69
88 92 94 94 93 90 85 79 72 68 64 61 60 55 52 51 47 42 40 39 35 33 30 29 34 35 36 38 39 42 44 48 51 54 56 59 60 67 77 77 75 77 76
94 91 89 85 80 75 70 67 65 61 59 55 51 50 49 47 44 38 35 32 30 28 26 22 26 31 33 36 37 38 39 39 40 43 48 53 58 58 60 70 81 76 74
86 79 74 69 64 61 61 59 59 58 51 47 43 42 42 43 41 36 30 29 28 26 24 21 21 25 26 28 29 31 32 33 37 42 47 53 55 57 61 60 71 77 75
67 61 57 56 56 55 53 51 48 44 41 35 32 34 35 35 34 31 27 29 26 25 24 21 21 22 24 24 25 26 27 29 32 37 43 51 53 54 55 55 61 70 83
50 50 50 48 46 44 41 37 34 33 32 29 26 26 27 27 27 26 24 25 25 24 24 22 22 21 21 21 21 21 23 25 28 30 34 40 46 50 50 51 54 59 67
41 41 39 37 33 32 30 28 26 24 23 22 20 19 20 20 21 20 21 22 23 22 22 22 23 22 20 21 20 19 19 20 22 25 28 32 35 40 43 45 48 52 57
33 29 26 23 21 22 21 20 18 17 17 17 15 14 15 16 18 19 19 20 22 23 23 24 26 25 25 24 24 22 22 21 21 23 23 24 26 30 34 39 42 46 50
21 17 15 15 16 17 18 17 16 16 17 17 14 11 10 11 13 17 18 19 21 24 25 27 27 28 29 28 28 27 26 25 24 23 23 25 27 29 33 35 36 39 44
14 12 13 15 17 18 20 19 18 16 16 16 13 10 8 7 9 12 16 19 20 24 26 27 28 29 31 30 30 29 29 27 27 26 26 29 32 35 38 40 40 41 41
13 11 13 16 17 19 20 19 18 17 16 16 14 11 8 7 7 9 12 14 17 21 24 26 26 28 30 30 30 29 28 25 25 26 29 32 36 37 39 42 43 44 44
14 13 13 15 17 19 20 20 17 16 15 14 13 11 9 8 7 6 7 10 14 16 19 23 24 26 29 28 29 29 27 21 20 22 24 26 26 27 30 34 40 43 44
14 13 12 14 16 18 19 19 16 14 13 12 12 10 9 7 7 5 4 5 9 12 16 20 23 24 26 25 28 27 23 18 17 18 18 16 16 18 23 30 36 40 42

GFSGL_250_spd_276.txt.gz
Wind_Speed
62 59 60 55 62 69 69 72 72 74 77 81 79 79 80 81 83 83 84 84 84 84 85 85 85 83 80 78 77 76 74 76 77 77 71 72 78 71 73 69 67 70 67
63 57 61 66 72 77 79 82 79 82 83 84 84 84 82 80 76 74 75 75 76 79 82 81 79 75 71 67 66 66 69 73 79 86 83 76 79 82 77 73 72 69 72
69 75 75 74 78 79 83 85 86 85 86 86 84 79 76 71 71 72 72 75 77 78 79 79 77 72 68 62 61 60 62 69 75 78 89 90 85 86 88 83 78 79 75
77 71 69 73 85 86 86 88 85 84 84 80 76 73 70 68 72 74 77 78 81 84 83 81 80 75 69 61 58 55 56 62 70 77 81 86 88 84 89 94 83 81 76
75 77 78 89 88 89 88 83 80 79 77 77 76 72 73 74 76 78 82 83 84 87 86 85 83 80 76 69 64 59 55 59 67 72 78 82 87 86 88 95 97 91 85
79 85 90 88 86 89 85 81 80 77 78 79 77 75 78 81 81 83 86 87 88 89 87 86 82 78 73 70 66 62 57 58 63 70 73 77 79 86 87 87 91 95 84
88 86 89 89 86 86 85 83 83 80 80 80 81 83 84 86 87 89 91 91 90 89 85 82 81 78 74 71 66 62 60 58 62 67 73 77 79 81 86 88 88 89 91
84 83 74 76 86 88 84 84 82 84 85 85 87 89 90 92 93 93 93 92 89 86 80 76 74 72 68 66 62 60 59 58 61 64 69 74 76 76 80 88 91 88 89
59 64 80 93 96 91 88 86 87 87 87 88 89 91 94 95 97 94 92 90 84 79 74 69 66 64 61 60 54 53 54 57 57 61 65 70 74 77 76 82 88 93 87
81 96 96 92 95 98 89 88 89 91 93 94 95 98 98 99 99 96 90 81 76 72 67 63 60 59 59 55 48 46 50 52 55 57 61 67 70 74 75 76 87 93 97
72 81 75 80 98 91 91 94 94 95 97 99 102 102 101 98 94 88 80 74 68 65 62 59 55 55 52 47 44 39 43 46 51 57 61 65 67 72 74 73 73 90 98
59 77 85 98 102 102 101 99 97 98 100 101 97 95 92 88 79 73 70 66 63 60 57 56 53 50 48 46 43 41 40 43 46 50 57 62 65 67 70 72 73 78 95
87 90 95 100 105 106 98 96 103 98 90 87 83 81 76 73 70 66 64 64 59 55 51 49 45 42 40 42 42 42 42 41 44 47 52 57 62 63 64 70 74 79 77
96 95 103 102 99 98 98 103 87 80 77 75 72 69 67 66 65 62 60 57 52 48 45 43 40 36 37 38 41 41 44 43 44 46 48 52 56 58 61 64 74 80 80
100 102 101 104 104 105 96 83 76 74 69 66 66 65 63 63 60 56 53 49 44 41 41 40 36 32 36 35 36 38 42 43 43 43 46 48 51 54 56 58 62 67 83
104 102 104 103 97 86 77 75 69 65 65 63 60 58 57 54 53 49 44 41 38 33 37 34 31 29 32 30 31 34 37 39 41 42 45 47 50 52 55 54 65 66 67
101 101 99 85 76 71 67 64 66 62 56 53 50 47 46 46 44 41 36 33 30 28 30 29 27 27 27 26 26 30 34 35 38 42 44 46 48 48 50 52 64 72 68
88 83 72 66 62 60 60 57 52 48 44 38 35 36 36 36 34 31 29 26 25 25 25 25 24 23 22 23 22 24 27 31 35 39 43 45 47 49 50 50 55 66 77
69 61 60 57 55 52 46 40 37 35 34 34 32 29 29 28 26 24 23 22 21 22 22 21 20 20 20 20 21 21 22 24 26 29 33 41 47 52 54 53 55 58 59
54 50 51 46 41 35 32 30 28 29 32 25 25 25 23 23 23 20 18 17 17 18 20 18 18 20 20 19 19 19 20 22 23 24 25 29 37 45 50 49 52 58 58
42 41 37 32 29 27 25 26 27 25 24 20 19 19 20 20 19 17 17 15 15 17 19 18 18 19 19 18 17 17 18 20 22 23 24 24 26 30 37 45 47 49 55
36 33 29 26 24 23 24 24 25 24 22 20 17 17 17 17 17 16 14 15 17 18 19 19 19 21 21 21 20 20 20 20 20 21 22 22 23 24 27 33 39 44 50
33 28 26 23 23 23 24 24 24 22 21 20 17 15 15 16 15 15 14 14 15 17 18 20 20 23 24 24 25 25 24 23 23 21 21 22 22 22 23 27 32 38 43
30 26 24 23 21 20 20 21 21 19 18 18 16 15 14 14 14 14 14 14 15 16 17 18 19 21 26 26 27 27 26 26 26 24 25 24 23 23 26 28 31 33 37
26 24 24 22 18 17 18 18 18 18 17 16 14 13 12 12 12 13 13 14 15 16 16 15 17 18 22 25 27 28 26 28 27 26 25 27 26 27 30 33 35 38 40
23 22 23 21 17 15 14 15 17 16 15 14 13 11 10 10 10 10 11 12 12 13 13 12 13 15 17 21 25 28 27 26 27 26 24 24 27 29 31 36 40 43 47

GFSGL_250_spd_279.txt.gz
Wind_Speed
71 73 69 64 61 65 64 63 60 59 68 71 76 74 77 83 84 84 84 80 79 77 76 74 69 65 63 61 61 63 65 68 70 71 69 65 64 66 68 62 66 67 65
69 65 61 60 60 63 69 72 71 71 72 72 72 75 85 86 86 84 82 79 77 77 76 75 74 73 70 65 60 56 57 59 62 66 68 71 70 70 71 70 67 69 67
67 62 63 59 65 71 75 76 77 78 78 80 82 84 86 85 84 83 79 76 74 75 77 78 80 81 81 78 74 65 59 57 58 63 66 69 71 74 76 75 71 69 68
73 71 67 69 72 81 82 82 83 82 83 83 84 85 80 82 84 84 79 77 75 77 82 85 86 87 85 84 81 73 65 58 55 59 63 69 71 73 77 78 77 72 69
74 77 82 80 85 89 84 84 86 86 83 84 84 79 79 85 83 83 83 83 84 87 90 90 90 91 90 87 85 81 72 59 55 57 61 65 70 74 78 76 78 73 74
81 83 89 95 92 92 91 93 91 88 90 89 78 78 82 86 85 84 83 86 88 90 91 94 92 92 88 85 83 83 74 63 57 56 59 61 71 74 76 78 77 71 75
88 89 88 86 91 93 94 95 94 92 91 84 81 79 89 90 85 88 92 93 94 94 94 94 96 94 89 87 81 77 69 63 58 55 57 62 69 75 76 76 77 70 75
86 85 85 92 94 91 89 91 97 93 86 81 79 88 96 92 97 102 104 100 101 102 99 99 96 94 86 80 76 71 64 58 54 50 52 60 67 73 78 77 78 78 83
85 86 88 89 87 87 94 89 93 86 88 91 93 98 92 96 101 113 107 104 98 99 97 95 90 83 76 72 66 61 57 53 46 43 48 58 66 71 76 78 79 79 82
80 77 84 88 90 91 94 90 90 94 95 96 93 92 99 101 116 116 107 100 99 95 92 85 76 72 67 63 58 54 53 49 44 40 45 55 63 70 74 77 79 79 79
72 78 83 84 79 85 83 87 91 87 86 91 99 99 111 116 112 103 96 96 92 87 78 72 67 62 59 55 53 51 50 46 41 39 45 52 58 65 72 74 76 77 78
78 78 80 85 87 73 88 93 93 85 91 101 108 117 110 99 95 94 89 81 73 67 64 62 60 57 54 50 48 46 47 46 41 42 46 51 53 59 66 72 74 77 77
68 73 73 90 84 82 96 91 96 96 94 107 118 104 98 96 93 87 76 70 64 61 60 58 57 53 48 42 40 40 40 42 42 43 47 50 54 56 61 66 72 74 73
57 72 77 88 79 86 88 95 96 99 109 121 108 100 95 86 80 73 67 62 58 54 51 50 48 45 40 36 35 35 35 36 39 43 46 48 51 55 59 63 68 69 70
79 85 83 86 88 88 92 103 104 111 114 113 101 86 80 73 66 61 57 51 46 41 41 40 38 36 33 32 31 32 32 33 36 39 44 46 48 50 56 62 64 66 66
79 83 91 91 95 101 111 112 110 112 107 90 75 68 65 61 58 54 48 43 38 35 34 32 30 30 30 27 28 28 28 30 31 35 41 44 46 47 50 56 63 64 64
98 105 104 97 103 108 113 112 112 99 82 65 59 57 55 52 50 46 42 36 31 28 26 25 25 24 23 25 25 24 24 25 28 31 34 39 42 43 46 51 55 60 63
99 107 104 103 107 112 112 107 98 75 60 52 48 48 46 45 41 38 33 28 24 22 19 21 20 20 22 22 22 21 20 21 25 27 30 35 39 41 44 47 50 53 56
98 101 106 109 109 103 92 79 66 56 50 47 46 43 41 40 34 31 27 23 20 20 18 17 16 18 19 19 18 17 17 19 23 27 29 33 38 40 43 46 47 50 52
103 102 96 89 84 74 62 56 50 44 43 44 42 40 38 33 30 26 22 20 18 18 17 15 14 16 17 17 16 15 15 17 19 23 27 30 34 39 44 47 50 50 51
83 81 77 65 55 53 50 45 40 39 40 38 38 36 34 31 27 23 20 18 17 18 16 14 13 15 16 16 15 15 15 16 18 20 22 26 31 35 39 45 50 52 53
52 50 49 49 48 45 42 37 36 37 37 37 35 32 29 26 23 21 19 18 16 16 16 16 13 15 16 16 16 15 16 16 17 18 20 21 23 27 33 39 44 50 52
49 47 44 43 42 38 34 33 33 34 33 32 28 24 23 19 18 18 18 17 16 15 15 16 15 15 18 17 18 18 18 18 18 18 19 19 19 20 25 29 34 39 45
44 40 37 36 34 32 30 29 29 30 29 27 23 21 19 16 15 16 17 17 17 16 15 14 16 15 17 19 20 20 20 21 20 19 19 19 19 19 20 23 29 35 38
38 36 34 32 30 28 26 26 26 26 25 23 21 19 16 14 14 14 15 15 15 14 14 12 13 15 15 19 20 21 22 22 21 20 19 20 20 20 20 23 26 30 36
32 30 29 28 27 26 24 24 23 22 21 20 18 15 13 13 13 13 14 14 13 12 11 10 10 12 15 18 19 23 25 24 23 22 22 21 23 22 21 22 24 27 32

GFSGL_250_spd_285.txt.gz
Wind_Speed
67 68 68 68 66 64 61 62 60 61 63 64 63 63 62 71 71 75 79 83 85 80 79 76 77 72 73 74 71 66 55 59 61 64 63 58 58 53 45 46 49 59 63
69 68 66 67 65 63 62 62 56 61 68 71 69 67 71 77 84 88 87 90 86 87 85 82 82 79 78 73 67 63 66 67 64 65 68 70 69 64 53 47 50 53 64
68 66 69 69 64 66 62 58 65 71 68 66 69 74 78 84 90 89 91 87 92 90 88 83 83 80 73 67 61 66 71 73 71 71 80 77 65 59 60 54 53 57 59
74 73 70 68 67 69 64 66 69 70 72 71 76 79 83 85 87 93 90 92 88 91 90 85 89 76 71 66 70 77 79 76 79 81 86 85 83 60 60 61 58 61 62
72 72 68 65 67 68 69 67 69 71 74 79 80 79 81 83 93 93 93 93 92 91 90 89 90 85 85 70 76 80 80 84 87 90 98 98 86 58 58 65 61 63 65
75 75 72 72 70 66 69 71 71 71 74 74 79 85 94 93 98 93 91 93 95 97 98 87 82 80 78 87 92 89 93 95 96 102 104 102 73 61 63 65 63 63 65
77 78 79 76 73 69 74 76 78 78 80 83 91 95 94 94 93 92 102 97 99 101 89 86 96 86 91 90 94 97 100 101 102 111 104 86 58 58 53 58 61 62 64
84 84 83 80 75 77 80 84 85 87 90 95 97 97 94 92 98 101 98 99 105 102 108 99 107 103 98 103 105 105 105 109 104 91 75 69 54 48 47 51 57 62 62
83 82 82 82 82 80 80 80 82 86 90 92 89 92 92 95 100 96 97 106 109 107 113 109 109 98 107 107 113 121 98 81 66 67 63 58 45 45 43 48 54 60 61
76 78 78 81 81 81 84 82 85 84 86 90 87 87 95 97 95 96 109 110 110 111 107 112 111 108 113 115 116 108 89 73 65 56 54 49 42 43 42 44 48 55 59
83 79 80 82 85 84 85 86 86 87 86 86 94 97 91 98 103 103 109 111 111 109 112 109 107 110 113 114 108 90 75 67 60 50 47 44 38 41 41 43 46 54 60
91 89 87 88 90 90 91 92 90 91 93 98 102 100 102 106 106 109 112 111 106 105 109 105 106 104 109 106 89 75 69 61 53 46 41 37 35 38 39 42 46 53 60
96 96 96 96 97 99 98 98 99 101 102 103 105 104 107 110 110 106 105 107 103 98 101 99 103 104 102 90 80 69 60 53 46 39 34 32 35 38 40 43 48 51 60
103 101 101 103 103 101 104 107 102 103 105 107 105 105 104 105 103 103 101 96 90 91 98 97 101 90 78 73 67 60 56 47 39 32 30 33 35 38 40 45 49 51 58
103 106 104 109 105 104 103 110 105 105 105 108 106 102 98 98 98 93 91 86 92 96 98 95 92 72 68 62 55 53 48 37 30 27 27 29 33 35 37 45 49 49 53
99 98 110 105 106 103 103 109 108 106 104 104 98 98 93 97 88 85 89 91 95 96 102 92 68 65 63 56 48 45 39 32 26 24 24 26 29 31 35 42 47 47 48
94 97 98 97 98 93 96 103 105 98 97 99 95 91 89 85 87 89 93 96 99 97 82 69 61 56 53 47 43 39 31 27 23 22 22 24 26 27 31 39 44 42 43
91 96 99 101 98 94 94 94 94 92 89 87 85 90 87 84 84 83 86 82 73 66 62 56 54 51 43 40 37 31 26 22 21 21 23 25 27 29 32 38 41 37 38
88 91 96 98 93 84 82 77 77 77 77 79 77 74 72 78 77 72 70 63 58 53 50 48 47 41 37 33 28 25 23 19 19 19 21 24 27 29 32 36 37 34 35
66 72 77 79 76 72 68 67 68 72 72 67 67 65 64 61 61 55 51 48 46 44 43 44 40 35 32 25 22 21 21 18 18 18 18 20 23 27 30 33 34 34 35
71 68 74 73 68 65 67 69 69 65 63 60 55 54 51 50 49 47 43 40 39 39 39 36 35 31 25 19 18 18 19 17 17 16 15 17 20 25 29 31 32 33 35
57 62 61 65 70 71 73 72 67 59 54 49 46 46 45 43 42 39 36 35 34 35 31 30 29 26 21 16 16 16 17 17 17 16 15 16 18 21 26 29 31 31 33
62 64 65 67 67 63 62 61 59 57 52 45 42 41 40 39 36 33 30 31 30 28 26 25 23 20 18 15 16 17 16 17 18 17 15 16 19 20 21 25 28 30 34
51 56 59 61 62 62 60 56 51 46 41 38 36 35 34 31 28 26 27 27 24 22 21 21 19 17 15 14 15 17 17 16 17 17 16 16 20 21 22 24 27 29 34
49 51 52 52 50 47 44 41 38 35 33 30 29 28 25 23 22 23 21 20 19 19 20 18 16 14 13 12 13 16 18 16 17 18 18 17 19 22 24 26 28 30 34
45 44 43 42 40 36 33 31 30 27 24 24 23 21 19 17 18 18 17 17 17 18 18 18 16 14 12 11 13 15 17 17 17 19 20 20 19 20 22 25 29 32 33

GFSGL_250_spd_288.txt.gz
Wind_Speed
62 63 65 66 62 62 63 65 64 64 64 66 67 66 66 67 63 63 63 65 64 69 75 74 78 79 81 77 74 67 50 50 54 50 53 56 60 53 53 54 54 53 56
67 66 66 67 69 69 69 68 69 66 67 68 67 68 65 65 68 65 67 69 70 77 77 81 82 84 86 80 82 49 63 56 62 63 59 58 56 62 63 62 59 55 61
70 68 69 70 71 72 72 69 67 69 69 69 67 64 67 70 70 69 70 71 76 78 85 85 82 90 93 84 83 79 79 69 66 62 60 66 68 67 68 70 67 61 58
73 71 72 75 75 75 73 74 72 72 73 71 69 65 67 71 72 72 71 77 82 84 80 84 94 97 91 88 86 88 85 73 76 65 68 70 70 82 93 94 87 76 63
75 74 73 74 74 75 76 75 71 71 74 72 72 68 70 70 73 78 81 80 83 86 93 100 98 96 90 90 91 94 83 79 77 80 83 88 92 98 99 98 87 70 59
76 74 75 76 76 74 74 73 72 72 73 73 74 71 77 78 82 84 86 89 96 99 96 99 96 94 94 95 96 98 84 83 86 90 88 94 93 91 80 77 63 52 49
76 75 77 77 77 76 78 79 79 77 75 76 76 76 78 83 89 90 94 95 97 95 96 95 95 96 99 99 103 100 96 89 96 96 97 98 94 70 62 64 52 41 49
77 76 78 79 80 80 80 78 80 81 83 85 83 83 80 84 87 86 91 90 95 95 93 93 98 97 97 108 101 100 96 101 99 92 92 83 68 58 55 52 46 40 46
84 82 75 74 75 76 76 79 82 83 83 82 84 87 83 87 88 92 90 94 93 95 94 97 98 99 100 102 104 97 97 100 88 89 84 71 63 57 51 45 39 36 38
81 76 76 79 79 81 79 86 83 80 76 85 83 85 90 88 88 91 96 99 97 97 101 101 102 100 106 99 97 101 100 94 89 82 70 58 53 50 44 39 35 34 38
81 67 67 78 72 79 77 73 81 80 80 79 85 90 92 91 93 93 97 100 100 102 103 103 105 102 99 97 98 96 93 86 83 73 63 51 46 43 37 36 35 35 39
86 85 85 84 69 81 87 81 74 86 86 91 95 97 97 100 102 103 104 103 106 108 109 109 106 102 98 96 92 91 86 84 74 65 56 44 38 35 32 35 35 35 37
88 89 91 91 89 98 100 102 103 106 105 102 102 103 105 108 107 108 111 110 109 110 110 105 101 99 95 90 86 84 79 75 64 58 47 36 30 30 30 32 33 33 35
89 95 99 95 95 93 97 101 100 102 106 110 108 109 111 113 110 113 114 114 106 104 103 100 95 90 86 86 82 79 68 62 58 51 41 32 27 25 28 29 30 30 33
97 98 106 104 100 104 107 109 111 109 108 112 118 120 116 113 114 110 108 108 103 103 96 93 87 85 86 78 71 63 59 54 52 44 38 30 26 22 23 27 27 29 32
108 113 109 107 111 117 118 117 115 113 115 117 119 119 119 114 112 111 106 102 97 92 87 83 83 80 77 69 60 51 48 47 45 39 37 31 24 19 22 24 27 31 33
112 112 111 107 119 116 116 119 118 113 118 115 120 120 119 115 107 105 103 97 91 84 78 77 73 72 66 57 51 44 42 41 39 35 34 30 22 18 19 24 30 32 35
110 112 109 109 113 114 108 112 116 117 117 116 115 116 114 109 103 100 93 86 78 74 69 67 61 53 52 48 42 38 35 37 36 32 31 29 23 19 20 23 29 33 36
89 93 98 99 101 104 105 109 113 112 111 112 111 109 103 99 91 81 71 68 67 65 61 51 48 45 44 39 35 31 33 34 35 29 26 25 23 21 19 21 25 31 36
62 63 72 77 84 90 94 97 97 96 97 97 95 90 84 73 65 60 58 56 55 53 50 44 41 38 36 33 28 29 32 33 31 26 24 22 20 20 20 21 24 29 35
45 51 52 53 58 60 63 67 70 72 73 70 67 64 60 57 50 48 50 48 46 43 39 36 33 33 31 26 25 28 30 30 27 24 21 19 16 17 19 22 25 30 35
44 49 52 55 57 58 60 60 60 59 56 54 50 50 48 44 43 42 40 38 35 33 31 29 29 27 24 22 24 26 28 28 25 21 18 16 14 15 16 20 26 32 37
37 41 45 48 51 53 52 51 48 45 46 46 43 39 37 37 36 34 32 30 28 26 25 24 22 21 20 20 22 24 26 25 22 19 15 14 15 14 15 20 27 34 38
42 46 49 52 53 53 52 49 46 44 42 40 37 34 32 30 28 26 24 23 21 21 19 18 17 17 16 17 21 23 24 22 18 16 15 14 16 17 16 21 30 35 38
47 48 49 50 50 48 45 41 38 35 34 32 29 26 24 22 20 18 18 16 16 15 15 15 15 15 15 16 18 20 20 18 16 15 14 15 17 19 20 25 31 35 37
45 45 43 42 40 39 34 32 30 28 27 25 22 20 17 15 14 14 14 15 13 13 13 13 14 15 15 15 16 17 17 15 14 14 14 15 16 19 23 27 32 33 36

GFSGL_250_spd_291.txt.gz
Wind_Speed
70 66 63 60 60 59 57 58 56 56 58 59 61 61 62 62 62 62 64 65 63 62 66 66 67 67 70 71 73 75 74 71 85 89 77 74 70 62 53 49 50 52 57
74 68 62 59 62 60 61 61 62 62 63 63 63 65 66 66 66 68 68 68 67 68 66 68 71 71 74 76 76 71 76 88 86 79 80 79 77 69 55 56 55 56 57
73 65 64 60 62 62 61 57 65 62 67 69 70 72 70 72 71 72 71 70 68 67 72 72 70 75 76 77 77 86 87 87 86 84 83 83 79 69 68 65 66 66 69
65 63 65 64 63 59 58 61 65 70 72 73 73 74 73 75 74 73 73 72 72 73 71 72 74 74 79 85 87 88 87 85 86 88 89 87 86 76 80 77 75 84 83
66 64 62 62 62 59 66 73 73 75 75 76 77 78 78 74 75 72 71 71 71 71 74 78 82 85 86 86 86 86 86 89 90 91 89 89 83 86 85 85 86 87 88
72 72 69 63 64 68 72 74 74 75 77 78 79 79 79 78 78 77 75 75 75 76 76 77 79 80 82 85 89 89 90 91 93 92 90 80 88 87 92 92 89 87 93
80 80 78 80 81 81 79 78 79 79 80 80 82 84 82 83 84 83 85 84 86 86 86 85 79 86 86 86 87 93 97 97 98 99 97 95 91 91 94 88 84 82 78
85 85 82 84 84 84 80 79 78 81 82 81 82 82 84 85 86 86 85 87 87 90 84 81 87 88 85 89 95 97 100 103 103 97 95 95 92 94 93 87 81 70 62
90 87 86 86 85 84 81 78 76 79 80 79 77 77 81 85 86 86 88 90 90 84 85 88 90 90 90 95 101 105 107 106 103 99 96 93 92 92 89 79 67 58 56
91 89 87 86 83 80 78 75 77 76 76 79 83 83 87 84 88 88 89 86 88 87 81 83 96 98 101 102 108 110 112 107 101 100 97 92 92 86 76 59 56 53 47
94 91 84 82 79 77 76 75 79 71 76 69 76 79 83 85 90 89 80 82 85 88 93 101 104 103 101 108 112 113 112 104 103 102 100 94 86 74 60 53 52 46 40
93 91 89 87 83 80 80 83 82 81 81 81 84 86 91 89 89 87 85 89 92 95 105 107 108 108 114 114 113 108 106 106 103 99 95 85 71 60 52 48 46 40 34
87 85 84 82 85 77 56 77 86 85 81 83 88 95 98 100 96 94 101 110 111 110 111 110 113 114 117 116 113 105 108 100 96 91 79 71 57 50 46 42 39 33 29
83 78 72 68 70 73 81 88 95 94 93 97 100 104 99 102 103 109 112 114 113 116 119 120 120 121 118 115 108 108 98 90 84 77 67 55 49 42 37 36 30 26 25
88 80 74 95 95 80 90 96 101 97 100 102 109 111 113 115 116 116 113 115 116 121 125 122 124 119 118 113 103 95 87 81 70 62 54 48 41 32 27 25 21 20 22
95 90 94 96 85 79 87 90 93 85 95 106 110 112 112 115 116 117 121 119 124 127 129 126 119 118 114 100 92 83 77 69 60 53 47 41 33 23 19 14 14 15 22
101 107 108 108 103 91 91 98 103 102 105 108 112 120 123 120 121 122 124 127 127 122 120 118 119 105 91 84 78 77 66 56 48 47 41 33 24 19 14 9 10 15 25
90 104 111 110 111 114 117 120 124 130 129 125 129 130 127 126 127 132 127 125 126 119 108 99 89 85 77 77 74 64 53 50 42 39 33 25 20 16 13 10 11 18 27
82 95 101 107 112 114 117 118 114 118 118 124 126 128 127 126 129 132 127 120 106 92 84 77 72 70 70 68 60 51 48 41 37 31 26 20 17 15 14 11 11 20 28
74 82 96 107 109 111 114 116 119 124 128 126 126 127 125 117 113 106 98 87 77 72 70 66 63 62 60 54 49 42 40 37 29 26 21 17 16 14 15 13 15 22 31
56 59 72 92 103 108 110 113 115 110 106 101 99 97 93 86 81 75 71 64 62 61 61 58 55 53 48 43 38 35 34 30 25 21 19 17 15 15 15 16 17 25 33
53 61 65 70 72 74 79 83 83 83 81 78 73 68 64 63 62 60 56 54 55 54 52 48 43 40 36 34 31 30 29 25 20 19 18 17 15 14 16 16 19 28 36
30 36 41 45 48 52 54 56 57 56 54 52 52 50 51 52 53 52 49 48 44 42 38 35 33 30 29 29 27 26 23 20 19 17 16 16 15 14 16 15 21 30 38
32 37 41 45 47 49 51 51 49 46 45 44 43 42 41 41 40 38 35 33 31 29 28 27 25 25 24 23 22 20 18 19 18 15 15 15 16 15 16 16 23 32 40
38 41 44 44 45 45 44 42 38 36 33 32 31 30 29 28 28 27 25 23 23 22 22 21 21 20 20 19 18 17 17 17 15 14 15 15 16 16 18 18 25 33 42
43 45 45 44 41 40 39 37 33 31 30 28 26 23 22 20 19 18 18 18 19 19 19 19 18 18 18 18 18 17 16 15 13 14 15 14 15 16 20 21 27 33 41